Voltar ao catálogo

COSMOS 1275 DEB

AtivoPO
NORAD 42200·DEBRIS·🇷🇺 Russia

Lançado Jun 4, 1981 de Plesetsk Cosmodrome

Loading…

Próximas Passagens (próximas 24 horas)

TLE

AtualizadoSource: Space-Track

Época: Sep 13, 2026, 05:00 UTC

1 42200U 81053TQ  26256.20857876  .00001879  00000-0  10307-2 0  9997
2 42200  82.9805  61.1264 0069799 257.0771 102.2603 14.10154383654145

Acompanhe COSMOS 1275 DEB em tempo real com AllMySat

Download on the App Store